Hourly Data Report for February 12, 2006

TORONTO CITY
ONTARIO

43°40'00.000" N
79°24'00.000" W
112.50 m
6158355
71508
XTO

Download Data

Hourly Data (February 2006)
Hourly Data Report for February 12, 2006
TIME
LST
Temp Definition
°C
Dew Point Definition
°C
Rel Hum Definition
%
Precip. Amount Definition
mm

Wind Dir Definition
10's deg

Wind Spd Definition
km/h
Visibility Definition
km
Stn Press Definition
kPa
Hmdx Definition


Wind Chill Definition


Weather Definition


00:00 -5.6 -9.7 73   LegendMM LegendMM   100.09     LegendNANA
01:00 -5.9 -10.6 69   LegendMM LegendMM   100.05     LegendNANA
02:00 -6.5 -11.7 67   LegendMM LegendMM   99.97     LegendNANA
03:00 -7.2 -13.1 63   LegendMM LegendMM   99.95     LegendNANA
04:00 -8.1 -14.0 62   LegendMM LegendMM   99.89     LegendNANA
05:00 -8.6 -14.5 62   LegendMM LegendMM   99.85     LegendNANA
06:00 -8.8 -15.3 59   LegendMM LegendMM   99.81     LegendNANA
07:00 -9.4 -15.6 61   LegendMM LegendMM   99.80     LegendNANA
08:00 -9.8 -16.0 61   LegendMM LegendMM   99.82     LegendNANA
09:00 -9.1 -16.2 56   LegendMM LegendMM   99.80     LegendNANA
10:00 -8.0 -16.4 51   LegendMM LegendMM   99.78     LegendNANA
11:00 -5.7 -15.1 47   LegendMM LegendMM   99.76     LegendNANA
12:00 -4.5 -16.2 40   LegendMM LegendMM   99.74     LegendNANA
13:00 -3.9 -17.1 35   LegendMM LegendMM   99.69     LegendNANA
14:00 -4.3 -16.5 38   LegendMM LegendMM   99.67     LegendNANA
15:00 -4.9 -16.8 39   LegendMM LegendMM   99.63     LegendNANA
16:00 -4.8 -15.7 42   LegendMM LegendMM   99.65     LegendNANA
17:00 -5.0 -16.4 40   LegendMM LegendMM   99.66     LegendNANA
18:00 -5.2 -16.1 42   LegendMM LegendMM   99.70     LegendNANA
19:00 -5.2 -14.4 48   LegendMM LegendMM   99.74     LegendNANA
20:00 -5.0 -13.6 51   LegendMM LegendMM   99.74     LegendNANA
21:00 -4.7 -13.2 51   LegendMM LegendMM   99.71     LegendNANA
22:00 -4.5 -11.4 59   LegendMM LegendMM   99.69     LegendNANA
23:00 -4.4 -7.7 78   LegendMM LegendMM   99.61     LegendNANA

Notes on Data Quality.

Legend

  • E = Estimated
  • M = Missing
  • NA = Not Available*
  • [empty] = Indicates an unobserved value
Date modified: